When you browse on this site, cookies collect data to enhance your experience and personalize the content and advertising you see.
Visit our Privacy Policy to learn more. By continuing to use the site, you agree to this use of cookies and data.
  • In Hungary
  • List of Countries
  • For 7 days
  • Water Temperature
  • Satellite Maps
  • Weather Map
  • News
  • Weather Widgets
  • user-avatar
    Login

    Hourly Weather Battle Creek

    Today, 17 June, Monday

    Time Temperature Precipitation Wind Pressure Humidity
    00:00 +15°C° 0 mm 2 mps 737 mmHg 97%
    01:00 +14°C° 0 mm 3 mps 737 mmHg 97%
    02:00 +14°C° 0 mm 3 mps 737 mmHg 96%
    03:00 +14°C° 0 mm 3 mps 737 mmHg 96%
    04:00 +14°C° 0 mm 3 mps 737 mmHg 95%
    05:00 +14°C° 0 mm 3 mps 737 mmHg 95%
    06:00 +14°C° 0 mm 3 mps 738 mmHg 94%
    07:00 +16°C° 0 mm 2 mps 738 mmHg 91%
    08:00 +17°C° 0 mm 2 mps 738 mmHg 88%
    09:00 +18°C° 0 mm 2 mps 738 mmHg 85%
    10:00 +19°C° 0 mm 2 mps 738 mmHg 83%
    11:00 +20°C° 0 mm 2 mps 738 mmHg 82%
    12:00 +22°C° 0 mm 1 mps 739 mmHg 80%
    13:00 +22°C° 0 mm 1 mps 738 mmHg 81%
    14:00 +23°C° 0 mm 1 mps 738 mmHg 81%
    15:00 +23°C° 0 mm 2 mps 738 mmHg 81%
    16:00 +23°C° 0.1 mm 2 mps 738 mmHg 84%
    17:00 +21°C° 0.1 mm 2 mps 738 mmHg 87%
    18:00 +21°C° 0.1 mm 2 mps 738 mmHg 89%
    19:00 +20°C° 0 mm 2 mps 738 mmHg 90%
    20:00 +20°C° 0 mm 1 mps 738 mmHg 92%
    21:00 +20°C° 0 mm 1 mps 738 mmHg 93%
    22:00 +19°C° 0.1 mm 1 mps 738 mmHg 93%
    23:00 +18°C° 0.1 mm 2 mps 738 mmHg 94%

    Tomorrow, 18 June, Tuesday

    Time Temperature Precipitation Wind Pressure Humidity
    00:00 +17°C° 0.1 mm 2 mps 738 mmHg 95%
    01:00 +17°C° 0 mm 2 mps 738 mmHg 95%
    02:00 +18°C° 0 mm 1 mps 738 mmHg 95%
    03:00 +18°C° 0 mm 1 mps 738 mmHg 96%
    04:00 +18°C° 0 mm 1 mps 738 mmHg 95%
    05:00 +19°C° 0 mm 1 mps 738 mmHg 94%
    06:00 +19°C° 0 mm 1 mps 738 mmHg 93%
    07:00 +21°C° 0.1 mm 1 mps 738 mmHg 90%
    08:00 +22°C° 0.1 mm 1 mps 738 mmHg 86%
    09:00 +23°C° 0.1 mm 1 mps 738 mmHg 83%
    10:00 +24°C° 0.3 mm 1 mps 738 mmHg 80%
    11:00 +25°C° 0.3 mm 1 mps 737 mmHg 76%
    12:00 +26°C° 0.3 mm 1 mps 737 mmHg 73%
    13:00 +26°C° 0.4 mm 1 mps 737 mmHg 73%
    14:00 +26°C° 0.4 mm 2 mps 736 mmHg 72%
    15:00 +26°C° 0.4 mm 2 mps 736 mmHg 72%
    16:00 +25°C° 0.5 mm 2 mps 736 mmHg 77%
    17:00 +24°C° 0.5 mm 2 mps 736 mmHg 83%
    18:00 +23°C° 0.5 mm 2 mps 735 mmHg 88%
    19:00 +21°C° 0 mm 2 mps 735 mmHg 90%
    20:00 +19°C° 0 mm 2 mps 735 mmHg 91%
    21:00 +19°C° 0 mm 1 mps 735 mmHg 93%
    22:00 +18°C° 0 mm 1 mps 735 mmHg 93%
    23:00 +18°C° 0 mm 1 mps 735 mmHg 92%

    Day after tomorrow, 19 June, Wednesday

    Time Temperature Precipitation Wind Pressure Humidity
    00:00 +16°C° 0 mm 1 mps 735 mmHg 92%
    01:00 +16°C° 0 mm 1 mps 734 mmHg 92%
    02:00 +16°C° 0 mm 1 mps 734 mmHg 92%
    03:00 +15°C° 0 mm 1 mps 734 mmHg 92%
    04:00 +16°C° 0 mm 1 mps 734 mmHg 91%
    05:00 +18°C° 0 mm 1 mps 734 mmHg 90%
    06:00 +19°C° 0 mm 1 mps 734 mmHg 89%
    07:00 +21°C° 0 mm 1 mps 734 mmHg 84%
    08:00 +23°C° 0 mm 1 mps 734 mmHg 79%
    09:00 +25°C° 0 mm 1 mps 734 mmHg 75%
    10:00 +25°C° 0.2 mm 1 mps 734 mmHg 72%
    11:00 +26°C° 0.2 mm 2 mps 733 mmHg 70%
    12:00 +26°C° 0.2 mm 2 mps 733 mmHg 68%
    13:00 +26°C° 0.5 mm 3 mps 732 mmHg 72%
    14:00 +25°C° 0.5 mm 4 mps 732 mmHg 76%
    15:00 +25°C° 0.5 mm 4 mps 731 mmHg 80%
    16:00 +22°C° 2.1 mm 5 mps 731 mmHg 85%
    17:00 +20°C° 2.1 mm 6 mps 730 mmHg 90%
    18:00 +17°C° 2.1 mm 7 mps 730 mmHg 94%
    19:00 +17°C° 4 mm 6 mps 730 mmHg 95%
    20:00 +16°C° 4 mm 5 mps 729 mmHg 96%
    21:00 +17°C° 4 mm 4 mps 729 mmHg 97%
    22:00 +16°C° 0.9 mm 5 mps 728 mmHg 97%
    23:00 +16°C° 0.9 mm 6 mps 728 mmHg 96%

    20 June, Thursday

    Time Temperature Precipitation Wind Pressure Humidity
    00:00 +16°C° 0.9 mm 7 mps 727 mmHg 96%
    01:00 +15°C° 1.2 mm 6 mps 727 mmHg 96%
    02:00 +15°C° 1.2 mm 6 mps 727 mmHg 96%
    03:00 +15°C° 1.2 mm 6 mps 726 mmHg 97%
    04:00 +15°C° 1.1 mm 6 mps 727 mmHg 97%
    05:00 +15°C° 1.1 mm 6 mps 727 mmHg 96%
    06:00 +15°C° 1.1 mm 6 mps 727 mmHg 96%
    07:00 +15°C° 0.4 mm 5 mps 728 mmHg 95%
    08:00 +15°C° 0.4 mm 5 mps 728 mmHg 94%
    09:00 +15°C° 0.4 mm 5 mps 728 mmHg 93%
    10:00 +16°C° 0 mm 5 mps 729 mmHg 89%
    11:00 +19°C° 0 mm 5 mps 729 mmHg 85%
    12:00 +20°C° 0 mm 5 mps 730 mmHg 82%
    13:00 +20°C° 0 mm 5 mps 730 mmHg 79%
    14:00 +21°C° 0 mm 5 mps 731 mmHg 77%
    15:00 +21°C° 0 mm 5 mps 731 mmHg 75%
    16:00 +21°C° 0 mm 4 mps 732 mmHg 78%
    17:00 +20°C° 0 mm 3 mps 732 mmHg 80%
    18:00 +19°C° 0 mm 3 mps 733 mmHg 83%
    19:00 +18°C° 0 mm 2 mps 733 mmHg 86%
    20:00 +16°C° 0 mm 2 mps 733 mmHg 88%
    21:00 +15°C° 0 mm 1 mps 734 mmHg 90%
    22:00 +14°C° 0 mm 1 mps 734 mmHg 89%
    23:00 +14°C° 0 mm 1 mps 734 mmHg 88%

    21 June, Friday

    Time Temperature Precipitation Wind Pressure Humidity
    00:00 +12°C° 0 mm 0 mps 734 mmHg 88%
    01:00 +12°C° 0 mm 0 mps 735 mmHg 87%
    02:00 +12°C° 0 mm 0 mps 735 mmHg 87%
    03:00 +12°C° 0 mm 0 mps 735 mmHg 87%
    04:00 +13°C° 0 mm 0 mps 735 mmHg 85%
    05:00 +14°C° 0 mm 0 mps 736 mmHg 83%
    06:00 +15°C° 0 mm 0 mps 736 mmHg 81%
    07:00 +19°C° 0 mm 1 mps 737 mmHg 76%
    08:00 +20°C° 0 mm 1 mps 737 mmHg 71%
    09:00 +21°C° 0 mm 2 mps 737 mmHg 66%
    10:00 +23°C° 0 mm 2 mps 738 mmHg 64%
    11:00 +24°C° 0 mm 2 mps 738 mmHg 63%
    12:00 +25°C° 0 mm 2 mps 738 mmHg 61%
    13:00 +25°C° 0 mm 2 mps 738 mmHg 62%
    14:00 +25°C° 0 mm 2 mps 738 mmHg 63%
    15:00 +25°C° 0 mm 2 mps 737 mmHg 63%
    16:00 +25°C° 0 mm 1 mps 737 mmHg 68%
    17:00 +24°C° 0 mm 1 mps 737 mmHg 73%
    18:00 +24°C° 0 mm 1 mps 737 mmHg 77%
    19:00 +22°C° 0 mm 1 mps 737 mmHg 81%
    20:00 +21°C° 0 mm 1 mps 737 mmHg 84%
    21:00 +19°C° 0 mm 1 mps 737 mmHg 87%
    22:00 +18°C° 0 mm 2 mps 737 mmHg 89%
    23:00 +18°C° 0 mm 2 mps 737 mmHg 91%

    22 June, Saturday

    Time Temperature Precipitation Wind Pressure Humidity
    00:00 +17°C° 0 mm 2 mps 737 mmHg 92%
    01:00 +17°C° 0 mm 2 mps 737 mmHg 92%
    02:00 +18°C° 0 mm 1 mps 737 mmHg 92%
    03:00 +16°C° 0 mm 1 mps 737 mmHg 93%
    04:00 +17°C° 0 mm 2 mps 738 mmHg 91%
    05:00 +18°C° 0 mm 2 mps 738 mmHg 90%
    06:00 +19°C° 0 mm 2 mps 738 mmHg 88%
    07:00 +21°C° 0 mm 3 mps 739 mmHg 84%
    08:00 +22°C° 0 mm 3 mps 739 mmHg 80%
    09:00 +25°C° 0 mm 3 mps 739 mmHg 77%
    10:00 +26°C° 0 mm 4 mps 739 mmHg 75%
    11:00 +27°C° 0 mm 4 mps 739 mmHg 74%
    12:00 +27°C° 0 mm 4 mps 739 mmHg 73%
    13:00 +27°C° 0.3 mm 4 mps 739 mmHg 75%
    14:00 +27°C° 0.3 mm 4 mps 738 mmHg 78%
    15:00 +27°C° 0.3 mm 4 mps 738 mmHg 80%
    16:00 +26°C° 0.1 mm 3 mps 738 mmHg 83%
    17:00 +26°C° 0.1 mm 3 mps 738 mmHg 86%
    18:00 +25°C° 0.1 mm 2 mps 738 mmHg 88%
    19:00 +24°C° 0 mm 2 mps 738 mmHg 91%
    20:00 +22°C° 0 mm 3 mps 738 mmHg 94%
    21:00 +21°C° 0 mm 3 mps 738 mmHg 96%
    22:00 +21°C° 0.9 mm 3 mps 738 mmHg 97%
    23:00 +21°C° 0.9 mm 3 mps 737 mmHg 97%
    Show more